Weather History for KPRB - March, 2012

Change the Weather History Date:

Tuesday, March 27, 2012

  Actual Average Record
Temperature  
Mean Temperature 52 °F 54 °F  
Max Temperature 61 °F 68 °F 83 °F (1969)
Min Temperature 42 °F 40 °F 25 °F (1972)
Degree Days  
Heating Degree Days 13 11  
Month to date heating degree days 358 323  
Since 1 July heating degree days 2403 2416  
Cooling Degree Days 0 0  
Month to date cooling degree days 0 0  
Year to date cooling degree days 0 0  
Growing Degree Days 2 (Base 50)    
Moisture  
Dew Point 42 °F    
Average Humidity 72    
Maximum Humidity 92    
Minimum Humidity 51    
Precipitation  
Precipitation 0.00 in 0.06 in 1.04 in (1958)
Month to date precipitation 2.03 2.28  
Year to date precipitation 3.66 7.62  
Since 1 July precipitation 6.47  
Sea Level Pressure  
Sea Level Pressure 30.06 in    
Wind  
Wind Speed 5 mph (SSW)    
Max Wind Speed 17 mph    
Max Gust Speed 22 mph    
Visibility 10 miles    
Events      
T = Trace of Precipitation, MM = Missing Value Source: NWS Daily Summary

Daily Weather History Graph

Daily Weather History Graph

Search for Another Location

Airport or City:

Trip Planner

Search our weather history database for the weather conditions in past years. The results will help you decide how hot, cold, wet, or windy it might be!

Date:

Astronomy

Mar. 27, 2012 Rise Set
Actual Time 6:55 AM PDT 7:20 PM PDT
Civil Twilight 6:29 AM PDT 7:46 PM PDT
Nautical Twilight 5:59 AM PDT 8:16 PM PDT
Astronomical Twilight 5:29 AM PDT 8:46 PM PDT
Moon 9:39 AM PDT (3/27) No Moon Set
Length of Visible Light 13h 16m
Length of Day
12h 25m
Waxing Crescent, 23% of the Moon is Illuminated
Mar 27
Waxing Crescent
Mar 30
First Quarter
Apr 6
Full
Apr 13
Last Quarter
Apr 21
New

Hourly Weather History & Observations

Time (PDT) Temp. Windchill Dew Point Humidity Pressure Visibility Wind Dir Wind Speed Gust Speed Precip Events Conditions
12:53 AM 43.0 °F - 39.9 °F 89% 30.09 in 10.0 mi Calm Calm - N/A   Clear
1:53 AM 43.0 °F - 39.9 °F 89% 30.09 in 10.0 mi Calm Calm - N/A   Clear
2:53 AM 43.0 °F - 39.9 °F 89% 30.09 in 10.0 mi Calm Calm - N/A   Clear
3:53 AM 43.0 °F 41.3 °F 39.9 °F 89% 30.08 in 10.0 mi ESE 3.5 mph - N/A   Clear
4:53 AM 44.1 °F - 41.0 °F 89% 30.08 in 10.0 mi Calm Calm - N/A   Clear
5:53 AM 44.1 °F - 41.0 °F 89% 30.07 in 10.0 mi Calm Calm - N/A   Clear
6:53 AM 44.1 °F - 41.0 °F 89% 30.08 in 10.0 mi Calm Calm - N/A   Clear
7:53 AM 45.0 °F - 42.1 °F 90% 30.08 in 10.0 mi Calm Calm - N/A   Clear
8:53 AM 46.9 °F - 41.0 °F 80% 30.08 in 10.0 mi Calm Calm - N/A   Partly Cloudy
9:53 AM 51.1 °F - 41.0 °F 68% 30.08 in 10.0 mi Calm Calm - N/A   Clear
10:53 AM 55.9 °F - 43.0 °F 62% 30.06 in 10.0 mi SW 6.9 mph - N/A   Partly Cloudy
11:53 AM 57.9 °F - 43.0 °F 58% 30.06 in 10.0 mi SW 12.7 mph 17.3 mph N/A   Overcast
12:53 PM 59.0 °F - 43.0 °F 55% 30.06 in 10.0 mi SW 10.4 mph 18.4 mph N/A   Scattered Clouds
1:53 PM 60.1 °F - 43.0 °F 53% 30.06 in 10.0 mi SSW 12.7 mph - N/A   Scattered Clouds
2:53 PM 59.0 °F - 43.0 °F 55% 30.05 in 10.0 mi SW 11.5 mph 20.7 mph N/A   Mostly Cloudy
3:53 PM 59.0 °F - 42.1 °F 53% 30.05 in 10.0 mi WSW 13.8 mph 20.7 mph N/A   Overcast
4:53 PM 57.9 °F - 43.0 °F 58% 30.03 in 10.0 mi SW 9.2 mph - N/A   Mostly Cloudy
5:53 PM 57.9 °F - 43.0 °F 58% 30.02 in 10.0 mi SSW 8.1 mph - N/A   Mostly Cloudy
6:53 PM 55.0 °F - 44.1 °F 67% 30.02 in 10.0 mi WSW 4.6 mph - N/A   Partly Cloudy
7:53 PM 54.0 °F - 44.1 °F 69% 30.04 in 10.0 mi Calm Calm - N/A   Clear
8:53 PM 53.1 °F - 44.1 °F 71% 30.04 in 10.0 mi South 4.6 mph - N/A   Scattered Clouds
9:53 PM 52.0 °F - 44.1 °F 74% 30.06 in 10.0 mi Calm Calm - N/A   Mostly Cloudy
10:53 PM 53.1 °F - 44.1 °F 71% 30.06 in 10.0 mi South 6.9 mph - N/A   Overcast
11:36 PM 53.6 °F - 44.6 °F 72% 30.07 in 10.0 mi SSE 8.1 mph - N/A   Overcast
11:53 PM 53.1 °F - 45.0 °F 74% 30.06 in 10.0 mi SE 9.2 mph - N/A   Overcast